Location: Atherton
(17.2661°S, 145.4859°E)
Time: 05:50:20
(UTC+10:00)

Explorer 11/Cluster Stage 4 - Pass Details

Date: 27 June 2025
Orbit: 463 x 1188 km, 28.8° (Epoch: 20 July)

Event Time Altitude Azimuth Distance (km) Brightness Sun altitude
Rises 18:51:16 0° 266° (W) 3,423 11.1 -13.4°
Reaches altitude 10° 18:54:55 10° 285° (WNW) 2,314 10.4 -14.2°
Maximum altitude 18:58:16 17° 323° (NW) 1,751 9.2 -15.0°
Drops below altitude 10° 19:01:15 10° 3° (N) 2,012 8.9 -15.7°
Sets 19:04:08 0° 24° (NNE) 2,784 9.4 -16.3°
